Regional Weather Roundup
Issued by NWS

Home | Current Version | Previous Version | Text Only | Print | Product List | Glossary Off
Versions: 1 2 3 4 5 6 7 8 9 10 11 12 13 14 15 16 17 18 19 20 21 22 23 24 25 26 27 28 29 30 31 32 33 34 35 36 37 38 39 40 41 42 43 44 45 46 47 48 49 50

000
ASUS43 KMKX 121159
RWRWI

WISCONSIN REGIONAL WEATHER ROUNDUP
NATIONAL WEATHER SERVICE MILWAUKEE/SULLIVAN WI
600 AM CST TUE DEC 12 2017

NOTE: "FAIR" INDICATES FEW OR NO CLOUDS BELOW 12,000 FEET WITH NO
SIGNIFICANT WEATHER AND/OR OBSTRUCTIONS TO VISIBILITY.

WIZ001-002-006>008-014>016-023>028-121300-
NORTHWEST WISCONSIN

CITY           SKY/WX    TMP DP  RH WIND       PRES   REMARKS
SUPERIOR ARPT  CLOUDY     5   0  78 W8        30.21S WCI  -8
ASHLAND        CLEAR      5  -1  76 W5        30.15S WCI  -4
6HR MIN TEMP:   4; 6HR MAX TEMP:  14;

HAYWARD        CLEAR      3  -2  79 CALM      30.14S
6HR MIN TEMP:   3; 6HR MAX TEMP:  13; 6HR PCP: TRACE;

SIREN          CLOUDY     4   0  83 NW6       30.20S WCI  -6
CUMBERLAND     CLEAR      5   0  78 NW8       30.15F WCI  -8
RICE LAKE      CLEAR      5   1  85 CALM      30.18F
CHETEK           N/A      5   1  83 MISG      30.17F
LADYSMITH      PTCLDY     6   0  78 NW7       30.15R WCI  -6
EAU CLAIRE     CLEAR      4   0  83 NW6       30.18S WCI  -7
6HR MIN TEMP:   4; 6HR MAX TEMP:  15;

MENOMONIE      CLEAR      8   4  84 W6        30.19F WCI  -2
NEW RICHMOND   CLOUDY     6   1  79 NW12      30.21S WCI -10
OSCEOLA        CLOUDY     5   0  82 W8        30.26R WCI  -9
$$

WIZ003>005-009-010-017-018-121300-
NORTH CENTRAL WISCONSIN

CITY           SKY/WX    TMP DP  RH WIND       PRES   REMARKS
MANITOWISH WTR LGT SNOW   9   6  87 NW10      30.00F WCI  -6
ARBOR VITAE    CLOUDY    11   7  82 NW8       30.00S WCI   0
WOODRUFF       CLOUDY    11   7  82 NW8       30.00S WCI   0
RHINELANDER    CLOUDY    10   5  80 NW9       30.00R WCI  -3
6HR MIN TEMP:  10; 6HR MAX TEMP:  13; 6HR PCP: TRACE;

EAGLE RIVER    CLOUDY    10   3  75 NW12      29.98S WCI  -5
LAND O LAKES   FLURRIES  10   4  79 NW7       29.99S WCI  -1
PHILLIPS       CLOUDY     8   1  75 N9        30.05F WCI  -6
TOMAHAWK       CLOUDY    10   2  72 NW10      30.04R WCI  -4
MEDFORD        MOCLDY     8   1  73 NW8       30.05S WCI  -4
MERRILL        CLOUDY    11   2  67 NW8       30.05S WCI   0
$$

WIZ029-030-035-036-043>047-121300-
CENTRAL WISCONSIN

CITY           SKY/WX    TMP DP  RH WIND       PRES   REMARKS
WAUSAU         CLOUDY    12   2  64 NW18G25   30.04S WCI  -6
6HR MIN TEMP:  12; 6HR MAX TEMP:  17; 6HR PCP: TRACE;

MOSINEE        CLOUDY    10   3  72 NW15      30.06S WCI  -6
MARSHFIELD     CLOUDY    11   3  70 NW17      30.06S WCI  -6
6HR MIN TEMP:  11; 6HR MAX TEMP:  14; 6HR PCP: TRACE;

STEVENS POINT  CLOUDY    11   1  62 NW10      30.07S WCI  -2
WAUPACA        CLOUDY    18   5  56 NW12G17   30.07R WCI   5
WAUTOMA        MOCLDY    13   2  61 NW12G17   30.10R WCI  -1
6HR MIN TEMP:  13; 6HR MAX TEMP:  20;

WISC RAPIDS    CLOUDY    13   4  67 NW12      30.10R WCI  -1
6HR MIN TEMP:  13; 6HR MAX TEMP:  18; 6HR PCP: TRACE;

CAMP DOUGLAS   CLEAR     11   3  69 NW12      30.12R WCI  -3
6HR MIN TEMP:  11; 6HR MAX TEMP:  19; 6HR PCP: TRACE;

$$

WIZ011>013-019>022-031-037>040-048>050-121300-
NORTHEAST WISCONSIN

CITY           SKY/WX    TMP DP  RH WIND       PRES   REMARKS
ANTIGO         CLOUDY    11   5  76 NW14G20   29.99S WCI  -5
SHAWANO        CLOUDY    17   8  66 N10       30.04S WCI   5
OCONTO         CLOUDY    14   2  59 N10G16    30.04R WCI   1
STURGEON BAY   PTCLDY    12   1  61 NW31G39   30.00R WCI -10
6HR MIN TEMP:  12; 6HR MAX TEMP:  18; 6HR PCP: TRACE;

GREEN BAY      CLOUDY    16   5  62 NW12      30.04R WCI   3
6HR MIN TEMP:  15; 6HR MAX TEMP:  20; 6HR PCP: TRACE;

MANITOWOC      CLOUDY    16   5  62 NW13      30.03R WCI   2
6HR MIN TEMP:  16; 6HR MAX TEMP:  20;

APPLETON       MOCLDY    16   1  53 NW16      30.02S WCI   0
CLINTONVILLE   CLOUDY    16   7  67 NW9       30.05R WCI   4
OSHKOSH        CLOUDY    17   4  56 NW20G25   30.05R WCI   1
6HR MIN TEMP:  17; 6HR MAX TEMP:  21;

$$

WIZ032>034-041-042-053>061-121300-
SOUTHWEST WISCONSIN

CITY           SKY/WX    TMP DP  RH WIND       PRES   REMARKS
LA CROSSE      CLEAR     12   4  70 NW12      30.19S WCI  -2
6HR MIN TEMP:  11; 6HR MAX TEMP:  20;

SPARTA         CLOUDY    13   6  74 NW9       30.16R WCI   0
VIROQUA        CLEAR     10   6  83 NW14      30.11R WCI  -5
BOSCOBEL       CLEAR     14   5  67 NW8       30.17R WCI   3
6HR MIN TEMP:  14; 6HR MAX TEMP:  23;

PRAIRIE DU CHI PTCLDY    15   7  72 NW8       30.18R WCI   4
PLATTEVILLE    CLEAR     15  10  83 NW10      30.12R WCI   2
$$

WIZ056-057-062-063-064-067-068-121300-
SOUTH CENTRAL WISCONSIN

CITY           SKY/WX    TMP DP  RH WIND       PRES   REMARKS
REEDSBURG      PTCLDY    13   4  66 NW13      30.11R WCI  -1
BARABOO/DELLS  CLOUDY    14   4  64 NW10      30.09S WCI   1
LONE ROCK      NOT AVBL
MINERAL POINT  MOCLDY    16  10  79 NW7       30.09S WCI   6
MADISON        PTCLDY    14   5  67 NW14G25   30.09R WCI  -1
6HR MIN TEMP:  14; 6HR MAX TEMP:  21; 6HR PCP: TRACE;

MIDDLETON      PTCLDY    16   7  66 NW16G25   30.09R WCI   1
WATERTOWN      CLEAR     14   6  69 NW13G18   30.06R WCI   0
MONROE         CLEAR     14   7  73 NW9G18    30.07R WCI   2
JANESVILLE     CLEAR     19   7  58 NW13G22   30.08R WCI   7
$$

WIZ051-052-058>065-066-070>072-121300-
SOUTHEAST WISCONSIN

CITY           SKY/WX    TMP DP  RH WIND       PRES   REMARKS
MILWAUKEE      MOCLDY    20   7  57 NW15G30   30.03R WCI   6
6HR MIN TEMP:  19; 6HR MAX TEMP:  26; 6HR PCP: TRACE;

WAUKESHA       MOCLDY    14   5  67 NW17      30.05R WCI  -3
MILWAUKEE/TIMM CLOUDY    19   5  53 NW14G24   30.04R WCI   6
RACINE         MOCLDY    19   5  54 NW12      30.04R WCI   7
6HR MIN TEMP:  19; 6HR MAX TEMP:  26;

BURLINGTON     CLEAR     27  22  80 NW13G23   30.05R WCI  17
KENOSHA        MOCLDY    18   7  62 NW10      30.04R WCI   6
6HR MIN TEMP:  18; 6HR MAX TEMP:  26; 6HR PCP: TRACE;

FOND DU LAC    CLOUDY    17   3  54 NW18      30.05R WCI   1
6HR MIN TEMP:  17; 6HR MAX TEMP:  22;

SHEBOYGAN      PTCLDY    14   3  61 N18G26    30.03R WCI  -3
6HR MIN TEMP:  14; 6HR MAX TEMP:  21;

WEST BEND      CLOUDY    18   9  68 NW14G21   30.02R WCI   4
JUNEAU         CLEAR     13   3  65 NW12G20   30.06R WCI  -1
$$

LSZ147-162-121300-
LAKE SUPERIOR

STATION/POSITION TIME  TEMP    WIND        PRES    WAVE
                       AIR SEA DIR/SP/G            HT/PER
                 (UTC) (F)     (DEG/KT/KT) (MB)    (FT/S)
DEVILS ISLAND    1100   11     320/ 14/ 18 1022.3F
SAXON HARBOR     1130   14                 1020.0S
$$

LMZ867-665-643>646-121300-
LAKE MICHIGAN

STATION/POSITION TIME  TEMP    WIND        PRES    WAVE
                       AIR SEA DIR/SP/G            HT/PER
                 (UTC) (F)     (DEG/KT/KT) (MB)    (FT/S)
NORTHPORT PIER   1132   17     320/ 26     1015.2R
KEWAUNEE LAKESHO 1130   15     340/ 15/ 23 1015.8R
SHEBOYGAN LAKESH 1100   18     320/ 18/ 21 1017.2R
PORT WASHINGTON  1130   19     320/  7/ 13 1017.9R
MILWAUKEE LAKESH 1130   20     320/ 14/ 18   N/A
KENOSHA   LAKESH 1100   20     310/ 17/ 21 1016.6
$$

TC  - TEMPERATURE IN CELSIUS
VSB - VISIBILITY IN STATUTE MILES
WCI - WIND CHILL INDEX
HX  - HEAT INDEX





USA.gov is the U.S. government's official web portal to all federal, state and local government web resources and services.